Preview of NWS' New Version of Forecast
This preview is not operational and should not be used for support decisions.

Regional Weather Roundup (RWR)

Issued by Gray - Portland, ME (GYX)

                            
000
ASUS41 KGYX 191205
RWRGYX
WEATHER ROUNDUP FOR MAINE AND NEW HAMPSHIRE
NATIONAL WEATHER SERVICE GRAY ME
800 AM EDT FRI APR 19 2019

MEZ002-005-006-010-012-015-018-020-021-024-026-027-029-191300-
MAINE
  
CITY           SKY/WX    TMP DP  RH WIND       PRES   REMARKS
PORTLAND       FOG       47  46  97 SW5       29.79S VSB 1/4          
6HR MIN TEMP:  43; 6HR MAX TEMP:  47; 6HR PCP: TRACE;                

SANFORD        FAIR      52  52 100 S3        29.79S                  
BAR HARBOR     LGT RAIN  48  48 100 S10       29.80S VSB 1/4          
WISCASSET      FOG       48  47  96 S3        29.80S VSB 1/4          
6HR MIN TEMP:  45; 6HR MAX TEMP:  48;                                

ROCKLAND       LGT RAIN  48  48 100 SW12G22   29.79S VSB 1/4          
FRYEBURG       CLOUDY    52  50  93 SW3       29.76S                  
6HR MIN TEMP:  37; 6HR MAX TEMP:  52;                                

LEWISTONAUBURN FOG       45  45 100 S6        29.77S VSB 3/4          
AUGUSTA        FOG       47  47 100 S9        29.76S VSB 1/4          
6HR MIN TEMP:  42; 6HR MAX TEMP:  47; 6HR PCP:  0.01;                

WATERVILLE     FOG       47  46  97 VRB5      29.74S VSB 1/4          
BANGOR         FOG       49  49 100 S9        29.76S VSB 1/2          
6HR MIN TEMP:  44; 6HR MAX TEMP:  49; 6HR PCP:  0.01;                

GREENVILLE       N/A     38  38 100 SE7       29.69R                  
6HR MIN TEMP:  37; 6HR MAX TEMP:  38;                                

MILLINOCKET    CLOUDY    44  42  93 VRB5      29.73R                  
6HR MIN TEMP:  41; 6HR MAX TEMP:  44; 6HR PCP:  0.02;                

HOULTON        CLOUDY    46  45  96 SW12G23   29.68R                  
6HR MIN TEMP:  40; 6HR MAX TEMP:  46; 6HR PCP:  0.04;                

PRESQUE ISLE   CLOUDY    44  42  93 S7        29.67R                  
6HR MIN TEMP:  39; 6HR MAX TEMP:  44; 6HR PCP:  0.01;                

FRENCHVILLE    LGT RAIN  41  38  89 S7        29.61R VSB<1/4          
6HR MIN TEMP:  37; 6HR MAX TEMP:  41; 6HR PCP:  0.07;                

CARIBOU        CLOUDY    42  40  92 S6        29.65R                  
6HR MIN TEMP:  38; 6HR MAX TEMP:  42; 6HR PCP:  0.03;                

$$

NHZ002-005-008-009-011-012-014-191300-
NEW HAMPSHIRE
  
CITY           SKY/WX    TMP DP  RH WIND       PRES   REMARKS
ROCHESTER      CLOUDY    48  48 100 CALM      29.78S                  
6HR MIN TEMP:  42; 6HR MAX TEMP:  48;                                

NASHUA         CLOUDY    64  60  87 VRB5      29.79S                  
MANCHESTER     PTSUNNY   50  49  96 CALM      29.78R                  
6HR MIN TEMP:  45; 6HR MAX TEMP:  50;                                

CONCORD        CLOUDY    49  48  97 S3        29.78S                  
6HR MIN TEMP:  43; 6HR MAX TEMP:  49;                                

LACONIA        CLOUDY    43  43 100 CALM      29.78S                  
PLYMOUTH       CLOUDY    39  39  99 CALM      29.78S FOG              
BERLIN         FAIR      39  38  96 CALM      29.72S FOG              
6HR MIN TEMP:  33; 6HR MAX TEMP:  39;                                

WHITEFIELD     FAIR      44  41  89 CALM      29.72S                  
6HR MIN TEMP:  36; 6HR MAX TEMP:  45;                                

JAFFREY        CLOUDY    59  54  83 SW12G17   29.80R                  
6HR MIN TEMP:  55; 6HR MAX TEMP:  59;                                

KEENE          CLOUDY    56  55  97 CALM      29.80R                  
LEBANON        CLOUDY    57  52  83 S9G20     29.73F HAZE             
6HR MIN TEMP:  51; 6HR MAX TEMP:  57;                                

MT WASHINGTON  NOT AVBL                                               
$$

VTZ005-007-008-191300-
VERMONT
  
CITY           SKY/WX    TMP DP  RH WIND       PRES   REMARKS
ST JOHNSBURY     N/A     51  49  92 MISG      29.71R                  
MONTPELIER     PTSUNNY   51  46  83 S8        29.74S                  
BURLINGTON     PTSUNNY   62  52  69 S15G30    29.64F                  
$$

MAZ007-012-024-CTZ003-RIZ002-NYZ038-NYZ072-191300-
SOUTHERN NEW ENGLAND AND NY
  
CITY           SKY/WX    TMP DP  RH WIND       PRES   REMARKS
BOSTON         PTSUNNY   68  57  68 SW22G30   29.81S                  
WORCESTER      CLOUDY    60  56  86 SW22G31   29.82S                  
NANTUCKET      PTSUNNY   52  50  93 S16       29.94S FOG              
PROVIDENCE     PTSUNNY   63  57  81 S15G23    29.87F                  
HARTFORD       CLOUDY    62  57  83 S15G21    29.82S                  
ALBANY         PTSUNNY   62  55  77 S17G25    29.71S                  
NEW YORK CITY  PTSUNNY   59  55  87 S13       29.81F                  
$$

ANZ081-ANZ082-ANZ150-NHZ014-MEZ023>029-191300-
COASTAL MARINE OBSERVATIONS
  
STATION/POSITION TIME  TEMP    WIND        PRES    WAVE
                       AIR SEA DIR/SP/G            HT/PER
                 (UTC) (F)     (DEG/KT/KT) (MB)    (FT/S)
ISLE OF SHOALS   1100   57     190/ 17/ 18 1008.2R
$$

.............KEY..............
   WCI - WIND CHILL
   TC  - TEMPERATURE IN CELSIUS
   VSB - VISIBILITY IN MILES
   HX  - HEAT INDEX
   FAIR- INDICATES FEW OR NO CLOUDS BELOW 12,000 FT, WITH NO 
         SIGNIFICANT WEATHER AND/OR OBSTRUCTIONS TO VISIBILITY.